sat.trackr.live / text

‹ back to catalog

STARLINK-31556

NORAD 59544 · 2024-074L

PAYLOAD ACTIVE UNKNOWN

§ Identity

Operator
Country
US
Launch date
2024-04-18
Launch site
AFETR
Launch vehicle
Mass (kg)
RCS (m²)

Purposes: comms

External: N2YO · Heavens-Above · Gunter

§ Orbital elements

Epoch: 2026-09-21T11:09:01.305216Z

Period
94.27 min
Inclination
43.0028°
Eccentricity
0.0000963
Mean motion
15.27579009 rev/d
Perigee alt
482.4 km
Apogee alt
483.7 km
Semi-major
6,861.2 km
B*
2.4114e-5
RAAN
318.0591°
Arg perigee
276.4896°
Mean anomaly
83.5846°
Rev number
13,595

§ Raw data

STARLINK-315561 59544U 24074L   26264.46459844  .00000402  00000+0  24114-4 0  99992 59544  43.0028 318.0591 0000963 276.4896  83.5846 15.27579009135955

JSON: /api/v1/satellites/59544 · /tle

For live sub-satellite position, see the globe view (requires WebGL).

§ Visibility from observer

Set your observer location to see the next 7 days of passes ≥ 10°. The values pass through the URL so the page stays shareable.

No JS? Fill the form by hand. The geolocation button needs JavaScript.